Location: Betz
(49.1556°N, 2.9558°E)
Time: 20:57:29
(UTC+00:00)

SJ-6B - Pass Details

Date: 18 September 2019
Orbit: 509 x 583 km, 97.6° (Epoch: 15 October)

Event Time Altitude Azimuth Distance (km) Brightness Sun altitude
Exits shadow 18:31:51 - 134° (SE) 2,451 5.6 -6.7°
Reaches altitude 10° 18:33:19 10° 127° (SE) 1,898 5.0 -6.9°
Maximum altitude 18:36:54 29° 67° (ENE) 1,071 3.9 -7.5°
Drops below altitude 10° 18:40:27 10° 6° (N) 1,891 5.6 -8.1°
Sets 18:42:47 0° 356° (N) 2,783 6.6 -8.5°
